Volver al catálogo

OPS 6431

ActivoNavegaciónLEO
NORAD 8818·PAYLOAD·🇺🇸 United States

Lanzado Apr 30, 1976 desde Vandenberg Space Force Base

Loading…

Próximos Pases (próximas 24 horas)

TLE

ActualizadoSource: Space-Track

Época: Sep 14, 2026, 05:08 UTC

1 08818U 76038A   26257.21425424 -.00000027  00000-0  39640-4 0  9991
2 08818  63.3582 188.3464 0348370 184.2013 175.6096 13.91700808119611

Sigue OPS 6431 en tiempo real con AllMySat

Download on the App Store